EW0876 Weather Reports


time (UTC)temp
C
wind
direction
speed
KPH
gust
KPH
rain 1hr
cm
rain 24hr
cm
rain mn
cm
humidity
%
barometer
mb
20260506143018 7 356 0.0 0.0 0.00 0.00 0.00 81 962.2
20260506141516 7 356 0.0 0.0 0.00 0.00 0.00 79 962.2
20260506140014 7 356 0.0 0.0 0.00 0.00 0.00 79 962.1
20260506134511 7 356 0.0 0.0 0.00 0.00 0.00 79 962.0
20260506133009 7 356 0.0 0.0 0.00 0.00 0.00 78 961.9
20260506131520 7 356 0.0 0.0 0.00 0.00 0.00 77 961.8
20260506130006 7 356 0.0 0.0 0.00 0.00 0.00 77 961.7
20260506124503 7 356 0.0 0.0 0.00 0.00 0.00 75 961.5
20260506123001 7 356 0.0 0.0 0.00 0.00 0.00 75 961.4
20260506121601 7 356 0.0 0.0 0.00 0.00 0.00 75 961.4
20260506120058 7 356 0.0 0.0 0.00 0.00 0.00 73 961.3
20260506114558 8 356 0.0 0.0 0.00 0.00 0.00 73 961.3
20260506113054 8 356 0.0 0.0 0.00 0.00 0.00 71 961.3
20260506111552 8 356 0.0 0.0 0.00 0.00 0.00 71 961.2
20260506110049 8 356 0.0 0.0 0.00 0.00 0.00 70 960.9
20260506104549 9 356 0.0 0.0 0.00 0.00 0.00 70 960.9
20260506103043 9 356 0.0 0.0 0.00 0.00 0.00 66 960.8
20260506101542 9 356 0.0 0.0 0.00 0.00 0.00 65 960.7
20260506100040 10 356 0.0 0.0 0.00 0.00 0.00 65 960.5
20260506094548 10 356 0.0 0.0 0.00 0.00 0.00 63 960.4
20260506093038 10 356 0.0 0.0 0.00 0.00 0.00 64 960.4
20260506091533 10 356 0.0 0.0 0.00 0.00 0.00 64 960.3
20260506090030 10 356 0.0 0.0 0.00 0.00 0.00 66 960.3
20260506084529 11 356 0.0 0.0 0.00 0.00 0.00 63 960.3
20260506083024 11 356 0.0 0.0 0.00 0.00 0.00 62 960.2
20260506081530 11 356 0.0 0.0 0.00 0.00 0.00 61 960.1
20260506073014 12 356 0.0 0.0 0.00 0.00 0.00 60 960.0
20260506071513 13 356 0.0 0.0 0.00 0.00 0.00 58 959.8
20260506061511 15 356 0.0 0.0 0.00 0.00 0.00 51 959.2
20260506044506 17 356 0.0 0.0 0.00 0.00 0.00 44 958.6
20260506043005 18 356 0.0 0.0 0.00 0.00 0.00 43 958.4
20260506041512 18 356 0.0 0.0 0.00 0.00 0.00 41 958.3
20260506040008 19 356 0.0 4.8 0.00 0.00 0.00 40 958.0
20260506034505 20 356 0.0 0.0 0.00 0.00 0.00 38 957.9
20260506033004 20 356 0.0 4.8 0.00 0.00 0.00 36 957.8
20260506031503 21 356 0.0 0.0 0.00 0.00 0.00 34 957.6
20260506030005 21 356 0.0 0.0 0.00 0.00 0.00 33 957.7
20260506024507 22 356 0.0 0.0 0.00 0.00 0.00 33 957.7
20260506023000 22 356 0.0 0.0 0.00 0.00 0.00 32 957.7
20260506021600 22 356 0.0 0.0 0.00 0.00 0.00 32 957.8
20260506020100 23 356 0.0 0.0 0.00 0.00 0.00 31 957.9
20260506014600 23 356 0.0 0.0 0.00 0.00 0.00 30 957.9
20260506013058 25 356 0.0 0.0 0.00 0.00 0.00 29 957.9
20260506011557 26 356 0.0 0.0 0.00 0.00 0.00 27 957.9
20260506010056 26 356 0.0 0.0 0.00 0.00 0.00 26 958.0
20260506004556 26 356 0.0 3.2 0.00 0.00 0.00 26 958.1
20260506003054 26 3 0.0 3.2 0.00 0.00 0.00 25 958.2
20260506001556 26 48 0.0 11.3 0.00 0.00 0.00 25 958.3
20260506000053 27 23 0.0 4.8 0.00 0.00 0.00 23 958.5
20260505234554 27 57 1.6 9.7 0.00 0.00 0.00 21 958.6
20260505233048 28 15 0.0 0.0 0.00 0.00 0.00 21 958.8
20260505231558 28 351 0.0 0.0 0.00 0.00 0.00 24 959.0
20260505230054 28 351 0.0 0.0 0.00 0.00 0.00 24 959.1
20260505224542 28 353 0.0 0.0 0.00 0.00 0.00 23 959.3
20260505223039 27 145 0.0 0.0 0.00 0.00 0.00 24 959.5
20260505221538 27 145 0.0 0.0 0.00 0.00 0.00 26 959.6
20260505220036 27 188 0.0 0.0 0.00 0.00 0.00 26 959.8
20260505214533 27 188 0.0 0.0 0.00 0.00 0.00 25 960.0
20260505213031 27 188 0.0 0.0 0.00 0.00 0.00 26 960.1
20260505211528 26 188 0.0 0.0 0.00 0.00 0.00 28 960.3
20260505210026 26 171 0.0 0.0 0.00 0.00 0.00 30 960.4
20260505204524 25 172 0.0 0.0 0.00 0.00 0.00 28 960.6
20260505203021 25 172 0.0 1.6 0.00 0.00 0.00 30 960.8
20260505201519 25 171 0.0 3.2 0.00 0.00 0.00 30 961.0
20260505200019 25 191 0.0 9.7 0.00 0.00 0.00 31 961.1
20260505194515 24 243 0.0 4.8 0.00 0.00 0.00 33 961.3
20260505193010 23 224 1.6 8.0 0.00 0.00 0.00 35 961.5
20260505191508 23 222 0.0 6.4 0.00 0.00 0.00 35 961.7
20260505190007 22 185 0.0 1.6 0.00 0.00 0.00 36 961.9
20260505184600 21 193 0.0 3.2 0.00 0.00 0.00 37 962.1
20260505183057 21 194 0.0 4.8 0.00 0.00 0.00 41 962.3
20260505181552 20 156 0.0 0.0 0.00 0.00 0.00 42 962.4
20260505180100 20 156 0.0 0.0 0.00 0.00 0.00 41 962.6
20260505174553 18 156 0.0 4.8 0.00 0.00 0.00 41 962.7
20260505173045 18 347 0.0 3.2 0.00 0.00 0.00 46 962.8
20260505171537 17 348 0.0 0.0 0.00 0.00 0.00 48 962.9
20260505170033 17 348 0.0 0.0 0.00 0.00 0.00 52 963.0
20260505164529 16 348 0.0 3.2 0.00 0.00 0.00 56 963.0
20260505163028 15 348 0.0 1.6 0.00 0.00 0.00 55 963.0
20260505161520 14 348 0.0 0.0 0.00 0.00 0.00 63 963.1
20260505153015 10 348 0.0 0.0 0.00 0.00 0.00 74 963.4
20260505151514 9 348 0.0 0.0 0.00 0.00 0.00 76 963.5